DW3384 Weather Reports


time (UTC)temp
C
wind
direction
speed
KPH
gust
KPH
rain 1hr
cm
rain 24hr
cm
rain mn
cm
humidity
%
barometer
mb
20260503024524 18 96 4.8 11.3 0.00 0.00 0.00 32 1012.9
20260503023024 18 84 4.8 9.7 0.00 0.00 0.00 30 1012.7
20260503021524 20 70 4.8 12.9 0.00 0.00 0.00 27 1012.5
20260503020023 20 323 1.6 3.2 0.00 0.00 0.00 24 1012.4
20260503014525 21 315 0.0 1.6 0.00 0.00 0.00 22 1012.2
20260503013022 22 305 0.0 1.6 0.00 0.00 0.00 21 1012.1
20260503011524 23 297 1.6 4.8 0.00 0.00 0.00 20 1012.1
20260503010027 23 277 4.8 14.5 0.00 0.00 0.00 19 1012.0
20260503004519 24 288 3.2 9.7 0.00 0.00 0.00 18 1012.0
20260503003018 24 275 4.8 16.1 0.00 0.00 0.00 18 1012.1
20260503001518 25 296 0.0 4.8 0.00 0.00 0.00 18 1012.1
20260503000015 25 281 0.0 12.9 0.00 0.00 0.00 19 1012.2
20260502234523 25 265 3.2 11.3 0.00 0.00 0.00 17 1012.3
20260502233014 25 261 8.0 20.9 0.00 0.00 0.00 18 1012.3
20260502231512 25 283 11.3 22.5 0.00 0.00 0.00 18 1012.4
20260502230011 25 279 8.0 19.3 0.00 0.00 0.00 19 1012.5
20260502224509 24 316 6.4 20.9 0.00 0.00 0.00 19 1012.5
20260502223008 25 275 4.8 12.9 0.00 0.00 0.00 19 1012.5
20260502221504 24 191 1.6 12.9 0.00 0.00 0.00 19 1012.8
20260502220002 24 254 6.4 12.9 0.00 0.00 0.00 20 1013.0
20260502214601 24 211 3.2 20.9 0.00 0.00 0.00 21 1013.1
20260502213108 24 262 9.7 20.9 0.00 0.00 0.00 20 1013.3
20260502211557 23 267 8.0 14.5 0.00 0.00 0.00 21 1013.6
20260502210055 23 177 3.2 19.3 0.00 0.00 0.00 21 1013.8
20260502204558 23 262 6.4 19.3 0.00 0.00 0.00 21 1014.1
20260502203048 23 22 6.4 19.3 0.00 0.00 0.00 22 1014.3
20260502201549 23 289 3.2 14.5 0.00 0.00 0.00 22 1014.5
20260502200042 22 248 6.4 16.1 0.00 0.00 0.00 23 1014.7
20260502194541 22 296 8.0 19.3 0.00 0.00 0.00 23 1014.8
20260502193048 23 314 9.7 24.1 0.00 0.00 0.00 24 1014.9
20260502191543 22 347 1.6 16.1 0.00 0.00 0.00 26 1015.1
20260502190036 22 292 6.4 14.5 0.00 0.00 0.00 26 1015.2
20260502184545 21 269 3.2 17.7 0.00 0.00 0.00 25 1015.5
20260502183034 21 258 8.0 24.1 0.00 0.00 0.00 27 1015.7
20260502181538 21 277 9.7 20.9 0.00 0.00 0.00 28 1015.9
20260502163010 17 288 1.6 11.3 0.00 0.00 0.00 47 1017.1
20260502161507 16 273 3.2 11.3 0.00 0.00 0.00 52 1017.2
20260502151553 13 289 6.4 12.9 0.00 0.00 0.00 59 1017.4
20260502123028 4 348 1.6 6.4 0.00 0.00 0.00 82 1016.8
20260502121536 4 290 1.6 6.4 0.00 0.00 0.00 82 1016.3
20260502114521 4 259 3.2 6.4 0.00 0.00 0.00 82 1015.8
20260502113019 4 281 1.6 4.8 0.00 0.00 0.00 81 1015.8
20260502111518 4 327 1.6 3.2 0.00 0.00 0.00 81 1015.6
20260502110019 5 327 1.6 6.4 0.00 0.00 0.00 80 1015.4
20260502104512 5 322 0.0 0.0 0.00 0.00 0.00 80 1015.2
20260502103010 5 291 0.0 0.0 0.00 0.00 0.00 80 1015.2
20260502101512 5 292 1.6 4.8 0.00 0.00 0.00 80 1015.2
20260502091505 6 297 1.6 6.4 0.00 0.00 0.00 79 1015.5
20260502070043 7 265 4.8 8.0 0.00 0.00 0.00 77 1015.8
20260502064539 8 242 3.2 8.0 0.00 0.00 0.00 76 1015.8
20260502063042 8 250 1.6 6.4 0.00 0.00 0.00 75 1015.8
20260502061537 8 228 3.2 8.0 0.00 0.00 0.00 74 1015.7
20260502060033 8 208 1.6 8.0 0.00 0.00 0.00 73 1015.8
20260502054536 9 230 1.6 4.8 0.00 0.00 0.00 71 1015.8
20260502053026 10 233 1.6 3.2 0.00 0.00 0.00 69 1015.8
20260502051522 11 257 4.8 8.0 0.00 0.00 0.00 68 1015.6
20260502050029 11 233 3.2 9.7 0.00 0.00 0.00 67 1015.8
20260502044519 11 279 6.4 11.3 0.00 0.00 0.00 65 1015.6
20260502043019 12 279 8.0 17.7 0.00 0.00 0.00 63 1015.6
20260502041519 12 286 8.0 19.3 0.00 0.00 0.00 62 1015.6
20260502040018 12 288 9.7 14.5 0.00 0.00 0.00 64 1015.5
20260502034517 11 267 1.6 4.8 0.00 0.00 0.00 64 1015.4
20260502033016 11 221 0.0 0.0 0.00 0.00 0.00 62 1015.3
20260502031518 12 173 0.0 3.2 0.00 0.00 0.00 58 1015.2
20260502030016 13 288 1.6 11.3 0.00 0.00 0.00 57 1014.9